TimeCST,TemperatureF,Dew PointF,Humidity,Sea Level PressureIn,VisibilityMPH,Wind Direction,Wind SpeedMPH,Gust SpeedMPH,PrecipitationIn,Events,Conditions,WindDirDegrees,DateUTC
12:14 AM,14.0,10.4,86,30.15,2.5,SE,10.4,-,N/A,Snow,Light Snow,130,2013-01-18 06:14:00
12:33 AM,14.0,10.4,86,30.13,5.0,SE,12.7,-,N/A,Snow,Light Snow,130,2013-01-18 06:33:00
12:53 AM,14.0,10.4,86,30.10,10.0,SE,10.4,-,N/A,Snow,Light Snow,130,2013-01-18 06:53:00
1:14 AM,15.8,10.4,79,30.09,10.0,ESE,11.5,-,N/A,,Overcast,120,2013-01-18 07:14:00
1:33 AM,15.8,10.4,79,30.08,10.0,ESE,12.7,-,N/A,,Overcast,110,2013-01-18 07:33:00
1:53 AM,15.8,10.4,79,30.07,10.0,ESE,11.5,-,N/A,,Overcast,110,2013-01-18 07:53:00
2:13 AM,15.8,10.4,79,30.05,10.0,ESE,12.7,-,N/A,,Overcast,120,2013-01-18 08:13:00
2:33 AM,15.8,10.4,79,30.05,10.0,ESE,12.7,-,N/A,,Mostly Cloudy,110,2013-01-18 08:33:00
2:54 AM,15.8,10.4,79,30.04,10.0,ESE,12.7,-,N/A,,Overcast,110,2013-01-18 08:54:00
3:13 AM,15.8,10.4,79,30.03,10.0,ESE,12.7,-,N/A,,Mostly Cloudy,120,2013-01-18 09:13:00
3:33 AM,15.8,12.2,86,30.00,10.0,ESE,11.5,-,N/A,,Mostly Cloudy,120,2013-01-18 09:33:00
3:54 AM,15.8,12.2,86,29.98,10.0,SE,12.7,-,N/A,,Scattered Clouds,130,2013-01-18 09:54:00
4:13 AM,17.6,12.2,79,29.96,10.0,SE,13.8,-,N/A,,Scattered Clouds,140,2013-01-18 10:13:00
4:33 AM,17.6,12.2,79,29.93,10.0,SE,17.3,-,N/A,,Scattered Clouds,140,2013-01-18 10:33:00
4:54 AM,17.6,14.0,86,29.91,10.0,SE,17.3,-,N/A,,Clear,140,2013-01-18 10:54:00
5:13 AM,17.6,14.0,86,29.90,10.0,SSE,12.7,-,N/A,,Scattered Clouds,150,2013-01-18 11:13:00
5:33 AM,19.4,15.8,86,29.88,10.0,SSE,15.0,-,N/A,,Scattered Clouds,150,2013-01-18 11:33:00
5:54 AM,19.4,15.8,86,29.86,10.0,SSE,13.8,-,N/A,,Clear,150,2013-01-18 11:54:00
6:13 AM,19.4,17.6,93,29.84,10.0,SSE,12.7,-,N/A,,Clear,150,2013-01-18 12:13:00
6:33 AM,21.2,17.6,86,29.84,10.0,SSE,11.5,-,N/A,,Scattered Clouds,150,2013-01-18 12:33:00
6:54 AM,21.2,19.4,93,29.83,10.0,SSE,9.2,-,N/A,,Overcast,160,2013-01-18 12:54:00
7:13 AM,21.2,19.4,93,29.81,10.0,SSE,9.2,-,N/A,,Scattered Clouds,160,2013-01-18 13:13:00
7:33 AM,21.2,19.4,93,29.79,10.0,SSE,9.2,-,N/A,,Scattered Clouds,160,2013-01-18 13:33:00
7:54 AM,21.2,19.4,93,29.79,10.0,South,6.9,-,N/A,,Mostly Cloudy,170,2013-01-18 13:54:00
8:13 AM,19.4,19.4,100,29.78,7.0,SSE,8.1,-,N/A,,Scattered Clouds,160,2013-01-18 14:13:00
8:33 AM,19.4,19.4,100,29.78,7.0,South,6.9,-,N/A,,Clear,170,2013-01-18 14:33:00
8:54 AM,19.4,17.6,93,29.79,7.0,South,3.5,-,N/A,,Clear,190,2013-01-18 14:54:00
9:13 AM,21.2,19.4,93,29.77,5.0,South,5.8,-,N/A,,Scattered Clouds,170,2013-01-18 15:13:00
9:34 AM,24.8,21.2,86,29.77,7.0,Calm,Calm,-,N/A,,Scattered Clouds,0,2013-01-18 15:34:00
9:53 AM,24.8,21.2,86,29.77,7.0,South,4.6,-,N/A,,Clear,190,2013-01-18 15:53:00
10:13 AM,23.0,21.2,93,29.75,10.0,South,5.8,-,N/A,,Clear,190,2013-01-18 16:13:00
10:34 AM,28.4,23.0,80,29.76,10.0,SSW,8.1,-,N/A,,Clear,210,2013-01-18 16:34:00
10:53 AM,28.4,24.8,86,29.76,10.0,SW,6.9,-,N/A,,Clear,220,2013-01-18 16:53:00
11:13 AM,30.2,24.8,80,29.74,10.0,SSW,5.8,-,N/A,,Clear,200,2013-01-18 17:13:00
11:34 AM,32.0,24.8,75,29.74,10.0,WSW,9.2,-,N/A,,Clear,240,2013-01-18 17:34:00
11:53 AM,33.8,26.6,75,29.73,10.0,SW,8.1,-,N/A,,Clear,230,2013-01-18 17:53:00
12:13 PM,33.8,26.6,75,29.72,10.0,West,10.4,-,N/A,,Clear,260,2013-01-18 18:13:00
12:34 PM,33.8,26.6,75,29.70,10.0,SW,8.1,-,N/A,,Clear,230,2013-01-18 18:34:00
12:53 PM,33.8,26.6,75,29.71,10.0,West,11.5,-,N/A,,Clear,270,2013-01-18 18:53:00
1:13 PM,33.8,26.6,75,29.70,10.0,West,13.8,-,N/A,,Clear,270,2013-01-18 19:13:00
1:34 PM,33.8,26.6,75,29.70,10.0,West,12.7,-,N/A,,Clear,270,2013-01-18 19:34:00
1:53 PM,33.8,26.6,75,29.70,10.0,West,11.5,16.1,N/A,,Clear,280,2013-01-18 19:53:00
2:13 PM,33.8,26.6,75,29.70,10.0,West,12.7,-,N/A,,Clear,280,2013-01-18 20:13:00
2:34 PM,33.8,26.6,75,29.71,10.0,West,15.0,18.4,N/A,,Clear,280,2013-01-18 20:34:00
2:53 PM,33.8,26.6,75,29.71,10.0,West,15.0,-,N/A,,Clear,280,2013-01-18 20:53:00
3:13 PM,33.8,26.6,75,29.71,10.0,West,13.8,-,N/A,,Clear,280,2013-01-18 21:13:00
3:34 PM,33.8,26.6,75,29.71,10.0,West,12.7,-,N/A,,Clear,280,2013-01-18 21:34:00
3:53 PM,33.8,26.6,75,29.72,10.0,West,16.1,-,N/A,,Clear,280,2013-01-18 21:53:00
4:14 PM,32.0,26.6,80,29.74,10.0,WNW,17.3,-,N/A,,Clear,290,2013-01-18 22:14:00
4:33 PM,30.2,26.6,86,29.74,10.0,West,10.4,-,N/A,,Clear,270,2013-01-18 22:33:00
4:53 PM,30.2,26.6,86,29.74,10.0,West,11.5,-,N/A,,Clear,280,2013-01-18 22:53:00
5:14 PM,30.2,26.6,86,29.75,10.0,West,9.2,-,N/A,,Clear,280,2013-01-18 23:14:00
5:33 PM,30.2,26.6,86,29.75,10.0,West,9.2,-,N/A,,Clear,280,2013-01-18 23:33:00
5:53 PM,28.4,26.6,93,29.76,10.0,West,8.1,-,N/A,,Clear,270,2013-01-18 23:53:00
6:14 PM,28.4,24.8,86,29.76,10.0,West,6.9,-,N/A,,Clear,270,2013-01-19 00:14:00
6:33 PM,28.4,24.8,86,29.76,10.0,West,8.1,-,N/A,,Clear,270,2013-01-19 00:33:00
6:53 PM,28.4,24.8,86,29.76,10.0,West,9.2,-,N/A,,Clear,260,2013-01-19 00:53:00
7:14 PM,26.6,24.8,93,29.76,10.0,West,9.2,-,N/A,,Scattered Clouds,260,2013-01-19 01:14:00
7:33 PM,26.6,24.8,93,29.76,10.0,West,8.1,-,N/A,,Clear,260,2013-01-19 01:33:00
7:53 PM,24.8,23.0,93,29.75,10.0,SW,8.1,-,N/A,,Clear,230,2013-01-19 01:53:00
8:14 PM,24.8,23.0,93,29.74,10.0,SSW,5.8,-,N/A,,Clear,210,2013-01-19 02:14:00
8:33 PM,24.8,23.0,93,29.75,10.0,WSW,8.1,-,N/A,,Clear,240,2013-01-19 02:33:00
8:53 PM,24.8,24.8,100,29.76,10.0,West,6.9,-,N/A,,Clear,260,2013-01-19 02:53:00
9:14 PM,24.8,24.8,100,29.77,10.0,West,9.2,-,N/A,,Clear,260,2013-01-19 03:14:00
9:33 PM,24.8,24.8,100,29.76,10.0,WSW,9.2,-,N/A,,Clear,250,2013-01-19 03:33:00
9:53 PM,26.6,26.6,100,29.75,10.0,West,8.1,-,N/A,,Clear,260,2013-01-19 03:53:00
10:14 PM,26.6,24.8,93,29.75,10.0,West,6.9,-,N/A,,Clear,260,2013-01-19 04:14:00
10:33 PM,26.6,24.8,93,29.75,7.0,West,5.8,-,N/A,,Clear,260,2013-01-19 04:33:00
10:53 PM,26.6,26.6,100,29.74,10.0,West,4.6,-,N/A,,Clear,270,2013-01-19 04:53:00
11:14 PM,26.6,26.6,100,29.73,10.0,Calm,Calm,-,N/A,,Clear,0,2013-01-19 05:14:00
11:33 PM,26.6,26.6,100,29.72,10.0,Calm,Calm,-,N/A,,Mostly Cloudy,0,2013-01-19 05:33:00
11:53 PM,26.6,26.6,100,29.72,10.0,Calm,Calm,-,N/A,,Mostly Cloudy,0,2013-01-19 05:53:00